When you browse on this site, cookies collect data to enhance your experience and personalize the content and advertising you see.
Visit our Privacy Policy to learn more. By continuing to use the site, you agree to this use of cookies and data.
  • In Austria
  • List of Countries
  • For 7 days
  • Water Temperature
  • Weather Map
  • News
  • Weather Widgets
  • user-avatar
    Login

    Hourly Weather Quipile

    Today, 27 February, Thursday

    Time Temperature Precipitation Wind Pressure Humidity
    00:00 +13°C° 0 mm 1 mps 598 mmHg 92%
    01:00 +13°C° 0 mm 1 mps 597 mmHg 92%
    02:00 +13°C° 0.1 mm 1 mps 597 mmHg 92%
    03:00 +13°C° 0.1 mm 1 mps 597 mmHg 92%
    04:00 +12°C° 0.1 mm 1 mps 596 mmHg 92%
    05:00 +13°C° 0.1 mm 1 mps 597 mmHg 91%
    06:00 +13°C° 0.1 mm 1 mps 597 mmHg 89%
    07:00 +12°C° 0.1 mm 0 mps 598 mmHg 88%
    08:00 +15°C° 0.2 mm 1 mps 599 mmHg 82%
    09:00 +18°C° 0.2 mm 1 mps 600 mmHg 76%
    10:00 +20°C° 0.2 mm 1 mps 601 mmHg 70%
    11:00 +21°C° 0.4 mm 1 mps 601 mmHg 68%
    12:00 +22°C° 0.4 mm 1 mps 600 mmHg 67%
    13:00 +21°C° 0.4 mm 2 mps 600 mmHg 65%
    14:00 +22°C° 0.5 mm 1 mps 599 mmHg 66%
    15:00 +22°C° 0.5 mm 1 mps 599 mmHg 67%
    16:00 +22°C° 0.5 mm 1 mps 598 mmHg 68%
    17:00 +20°C° 1 mm 1 mps 598 mmHg 75%
    18:00 +18°C° 1 mm 1 mps 597 mmHg 81%
    19:00 +16°C° 1 mm 1 mps 597 mmHg 88%
    20:00 +15°C° 0.8 mm 1 mps 598 mmHg 89%
    21:00 +15°C° 0.8 mm 1 mps 598 mmHg 89%
    22:00 +15°C° 0.8 mm 1 mps 598 mmHg 90%
    23:00 +15°C° 0.5 mm 1 mps 598 mmHg 90%

    Tomorrow, 28 February, Friday

    Time Temperature Precipitation Wind Pressure Humidity
    00:00 +14°C° 0.5 mm 1 mps 598 mmHg 91%
    01:00 +14°C° 0.5 mm 1 mps 598 mmHg 91%
    02:00 +14°C° 0.8 mm 1 mps 597 mmHg 92%
    03:00 +13°C° 0.8 mm 0 mps 597 mmHg 93%
    04:00 +13°C° 0.8 mm 0 mps 597 mmHg 94%
    05:00 +13°C° 0.5 mm 0 mps 597 mmHg 94%
    06:00 +13°C° 0.5 mm 0 mps 598 mmHg 94%
    07:00 +13°C° 0.5 mm 0 mps 598 mmHg 94%
    08:00 +15°C° 0.2 mm 1 mps 599 mmHg 90%
    09:00 +16°C° 0.2 mm 1 mps 599 mmHg 87%
    10:00 +18°C° 0.2 mm 1 mps 599 mmHg 84%
    11:00 +19°C° 0.3 mm 1 mps 599 mmHg 78%
    12:00 +21°C° 0.3 mm 1 mps 599 mmHg 71%
    13:00 +21°C° 0.3 mm 2 mps 599 mmHg 65%
    14:00 +21°C° 0.5 mm 2 mps 599 mmHg 66%
    15:00 +22°C° 0.5 mm 1 mps 598 mmHg 68%
    16:00 +21°C° 0.5 mm 1 mps 597 mmHg 70%
    17:00 +20°C° 0.9 mm 1 mps 597 mmHg 77%
    18:00 +18°C° 0.9 mm 1 mps 597 mmHg 83%
    19:00 +16°C° 0.9 mm 1 mps 597 mmHg 89%
    20:00 +15°C° 0.6 mm 1 mps 597 mmHg 89%
    21:00 +15°C° 0.6 mm 1 mps 598 mmHg 90%
    22:00 +15°C° 0.6 mm 1 mps 598 mmHg 90%
    23:00 +15°C° 0.3 mm 1 mps 598 mmHg 90%

    Day after tomorrow, 29 February, Saturday

    Time Temperature Precipitation Wind Pressure Humidity
    00:00 +15°C° 0.3 mm 1 mps 598 mmHg 90%
    01:00 +14°C° 0.3 mm 1 mps 597 mmHg 90%
    02:00 +15°C° 0.2 mm 1 mps 597 mmHg 90%
    03:00 +14°C° 0.2 mm 0 mps 597 mmHg 89%
    04:00 +14°C° 0.2 mm 0 mps 597 mmHg 89%
    05:00 +14°C° 0.2 mm 0 mps 598 mmHg 89%
    06:00 +14°C° 0.2 mm 0 mps 598 mmHg 88%
    07:00 +14°C° 0.2 mm 0 mps 598 mmHg 88%
    08:00 +15°C° 0.2 mm 0 mps 599 mmHg 84%
    09:00 +18°C° 0.2 mm 1 mps 599 mmHg 80%
    10:00 +19°C° 0.2 mm 1 mps 600 mmHg 77%
    11:00 +20°C° 0.1 mm 1 mps 600 mmHg 70%
    12:00 +22°C° 0.1 mm 1 mps 600 mmHg 64%
    13:00 +23°C° 0.1 mm 2 mps 600 mmHg 58%
    14:00 +23°C° 0.2 mm 2 mps 599 mmHg 62%
    15:00 +21°C° 0.2 mm 2 mps 598 mmHg 66%
    16:00 +20°C° 0.2 mm 2 mps 598 mmHg 70%
    17:00 +20°C° 0.8 mm 1 mps 597 mmHg 76%
    18:00 +19°C° 0.8 mm 1 mps 597 mmHg 81%
    19:00 +16°C° 0.8 mm 1 mps 597 mmHg 87%
    20:00 +16°C° 0.8 mm 1 mps 598 mmHg 88%
    21:00 +15°C° 0.8 mm 1 mps 598 mmHg 88%
    22:00 +15°C° 0.8 mm 1 mps 598 mmHg 89%
    23:00 +15°C° 0.5 mm 1 mps 598 mmHg 89%

    1 March, Sunday

    Time Temperature Precipitation Wind Pressure Humidity
    00:00 +15°C° 0.5 mm 1 mps 598 mmHg 89%
    01:00 +14°C° 0.5 mm 0 mps 597 mmHg 89%
    02:00 +15°C° 0.5 mm 1 mps 597 mmHg 89%
    03:00 +15°C° 0.5 mm 1 mps 597 mmHg 89%
    04:00 +14°C° 0.5 mm 1 mps 597 mmHg 89%
    05:00 +14°C° 0.1 mm 1 mps 597 mmHg 89%
    06:00 +15°C° 0.1 mm 1 mps 598 mmHg 88%
    07:00 +14°C° 0.1 mm 0 mps 598 mmHg 88%
    08:00 +16°C° 0.6 mm 1 mps 599 mmHg 85%
    09:00 +18°C° 0.6 mm 1 mps 599 mmHg 82%
    10:00 +19°C° 0.6 mm 1 mps 600 mmHg 79%
    11:00 +20°C° 0.6 mm 1 mps 600 mmHg 74%
    12:00 +21°C° 0.6 mm 1 mps 599 mmHg 68%
    13:00 +23°C° 0.6 mm 1 mps 599 mmHg 63%
    14:00 +22°C° 0.2 mm 1 mps 598 mmHg 63%
    15:00 +22°C° 0.2 mm 1 mps 598 mmHg 64%
    16:00 +22°C° 0.2 mm 1 mps 597 mmHg 65%
    17:00 +21°C° 0.6 mm 1 mps 597 mmHg 73%
    18:00 +19°C° 0.6 mm 1 mps 597 mmHg 81%
    19:00 +16°C° 0.6 mm 1 mps 596 mmHg 88%
    20:00 +16°C° 1 mm 1 mps 597 mmHg 88%
    21:00 +16°C° 1 mm 1 mps 597 mmHg 88%
    22:00 +15°C° 1 mm 1 mps 598 mmHg 89%
    23:00 +15°C° 0.3 mm 1 mps 598 mmHg 88%

    2 March, Monday

    Time Temperature Precipitation Wind Pressure Humidity
    00:00 +15°C° 0.3 mm 1 mps 597 mmHg 87%
    01:00 +15°C° 0.3 mm 1 mps 597 mmHg 86%
    02:00 +14°C° 0.5 mm 1 mps 597 mmHg 86%
    03:00 +14°C° 0.5 mm 1 mps 596 mmHg 86%
    04:00 +14°C° 0.5 mm 1 mps 596 mmHg 86%
    05:00 +14°C° 0.3 mm 1 mps 596 mmHg 86%
    06:00 +14°C° 0.3 mm 1 mps 597 mmHg 86%
    07:00 +14°C° 0.3 mm 1 mps 597 mmHg 86%
    08:00 +16°C° 0.3 mm 1 mps 598 mmHg 81%
    09:00 +18°C° 0.3 mm 1 mps 599 mmHg 76%
    10:00 +20°C° 0.3 mm 1 mps 599 mmHg 71%
    11:00 +21°C° 0.1 mm 1 mps 599 mmHg 67%
    12:00 +22°C° 0.1 mm 1 mps 599 mmHg 62%
    13:00 +24°C° 0.1 mm 2 mps 599 mmHg 57%
    14:00 +23°C° 0.1 mm 1 mps 598 mmHg 59%
    15:00 +23°C° 0.1 mm 1 mps 598 mmHg 60%
    16:00 +23°C° 0.1 mm 1 mps 597 mmHg 62%
    17:00 +21°C° 0.4 mm 1 mps 597 mmHg 70%
    18:00 +19°C° 0.4 mm 1 mps 597 mmHg 78%
    19:00 +18°C° 0.4 mm 1 mps 596 mmHg 86%
    20:00 +16°C° 1.4 mm 1 mps 597 mmHg 87%
    21:00 +16°C° 1.4 mm 1 mps 597 mmHg 88%
    22:00 +15°C° 1.4 mm 1 mps 597 mmHg 89%
    23:00 +15°C° 0.3 mm 1 mps 597 mmHg 89%

    3 March, Tuesday

    Time Temperature Precipitation Wind Pressure Humidity
    00:00 +15°C° 0.3 mm 1 mps 597 mmHg 89%
    01:00 +14°C° 0.3 mm 1 mps 597 mmHg 89%
    02:00 +14°C° 0.3 mm 1 mps 596 mmHg 89%
    03:00 +14°C° 0.3 mm 1 mps 596 mmHg 89%
    04:00 +14°C° 0.3 mm 1 mps 596 mmHg 89%
    05:00 +14°C° 0.1 mm 1 mps 596 mmHg 88%
    06:00 +14°C° 0.1 mm 1 mps 597 mmHg 88%
    07:00 +14°C° 0.1 mm 1 mps 597 mmHg 88%
    08:00 +16°C° 0.2 mm 1 mps 598 mmHg 82%
    09:00 +19°C° 0.2 mm 1 mps 599 mmHg 76%
    10:00 +21°C° 0.2 mm 1 mps 600 mmHg 70%
    11:00 +22°C° 0.2 mm 1 mps 599 mmHg 65%
    12:00 +23°C° 0.2 mm 1 mps 599 mmHg 60%
    13:00 +24°C° 0.2 mm 1 mps 599 mmHg 55%
    14:00 +24°C° 0.1 mm 1 mps 598 mmHg 57%
    15:00 +23°C° 0.1 mm 1 mps 598 mmHg 60%
    16:00 +23°C° 0.1 mm 1 mps 597 mmHg 62%
    17:00 +21°C° 0.9 mm 1 mps 597 mmHg 70%
    18:00 +19°C° 0.9 mm 1 mps 596 mmHg 77%
    19:00 +18°C° 0.9 mm 1 mps 596 mmHg 85%
    20:00 +16°C° 1.7 mm 1 mps 596 mmHg 86%
    21:00 +16°C° 1.7 mm 1 mps 597 mmHg 87%
    22:00 +15°C° 1.7 mm 1 mps 597 mmHg 88%
    23:00 +15°C° 0.9 mm 1 mps 597 mmHg 89%
    Show more